Marshalltown, IA

3:55 PM CST on February 06, 2016 (GMT -0600)
Marshalltown Municipal

Weather History for KMIW - April, 2012

Change the Weather History Date:

Sunday, April 8, 2012

  Actual Average Record
Temperature  
Mean Temperature 49 °F 46 °F  
Max Temperature 69 °F 58 °F 73 °F (2013)
Min Temperature 29 °F 35 °F 16 °F (1997)
Degree Days  
Heating Degree Days 16 19  
Month to date heating degree days 78 160  
Since 1 July heating degree days 5123 6461  
Cooling Degree Days 0 0  
Month to date cooling degree days 0 0  
Year to date cooling degree days 18 0  
Moisture  
Dew Point 27 °F    
Average Humidity 48    
Maximum Humidity 75    
Minimum Humidity 20    
Precipitation  
Precipitation 0.00 in 0.08 in 1.55 in (1999)
Month to date precipitation 0.07 0.57  
Year to date precipitation 2.26  
Sea Level Pressure  
Sea Level Pressure 30.23 in    
Wind  
Wind Speed 11 mph (West)    
Max Wind Speed 31 mph    
Max Gust Speed 39 mph    
Visibility 10 miles    
Events      
T = Trace of Precipitation, MM = Missing Value Source: NWS Daily Summary

Daily Weather History Graph

Daily Weather History Graph

Search for Another Location

Airport or City:

Trip Planner

Search our weather history database for the weather conditions in past years. The results will help you decide how hot, cold, wet, or windy it might be!

Date:

Astronomy

Apr. 08, 2012 Rise Set
Actual Time 6:41 AM CDT 7:45 PM CDT
Civil Twilight 6:13 AM CDT 8:14 PM CDT
Nautical Twilight 5:38 AM CDT 8:48 PM CDT
Astronomical Twilight 5:03 AM CDT 9:24 PM CDT
Moon 10:37 PM CDT (4/8) 7:35 AM CDT (4/8)
Length of Visible Light 14h 01m
Length of Day
13h 04m
Waning Gibbous, 95% of the Moon is Illuminated
Apr 8
Waning Gibbous
Apr 13
Last Quarter
Apr 21
New
Apr 29
First Quarter
May 5
Full

Hourly Weather History & Observations

Time (CDT) Temp. Windchill Dew Point Humidity Pressure Visibility Wind Dir Wind Speed Gust Speed Precip Events Conditions
12:53 AM 37.9 °F 34.4 °F 27.0 °F 65% 30.30 in 10.0 mi WNW 4.6 mph - N/A   Clear
1:53 AM 39.9 °F 36.7 °F 26.1 °F 58% 30.31 in 10.0 mi West 4.6 mph - N/A   Clear
2:53 AM 37.9 °F 34.4 °F 25.0 °F 60% 30.31 in 10.0 mi WNW 4.6 mph - N/A   Clear
3:53 AM 36.0 °F 31.1 °F 25.0 °F 64% 30.31 in 10.0 mi West 5.8 mph - N/A   Clear
4:53 AM 33.1 °F 27.7 °F 25.0 °F 72% 30.30 in 10.0 mi SW 5.8 mph - N/A   Clear
5:53 AM 33.1 °F 27.7 °F 25.0 °F 72% 30.32 in 10.0 mi WSW 5.8 mph - N/A   Clear
6:53 AM 32.0 °F 25.6 °F 25.0 °F 75% 30.35 in 10.0 mi West 6.9 mph - N/A   Clear
7:53 AM 36.0 °F 32.1 °F 28.0 °F 73% 30.36 in 10.0 mi WSW 4.6 mph - N/A   Clear
8:53 AM 44.1 °F 41.5 °F 30.9 °F 60% 30.35 in 10.0 mi West 4.6 mph - N/A   Clear
9:53 AM 53.1 °F - 33.1 °F 47% 30.32 in 10.0 mi WSW 8.1 mph - N/A   Clear
10:53 AM 60.1 °F - 28.0 °F 30% 30.32 in 10.0 mi WSW 18.4 mph - N/A   Clear
11:53 AM 62.1 °F - 27.0 °F 26% 30.30 in 10.0 mi WSW 18.4 mph - N/A   Clear
12:53 PM 63.0 °F - 26.1 °F 25% 30.26 in 10.0 mi WSW 15.0 mph 28.8 mph N/A   Clear
1:53 PM 66.0 °F - 25.0 °F 21% 30.21 in 10.0 mi SW 16.1 mph 25.3 mph N/A   Clear
2:53 PM 68.0 °F - 26.1 °F 21% 30.18 in 10.0 mi West 21.9 mph 27.6 mph N/A   Clear
3:53 PM 68.0 °F - 27.0 °F 21% 30.15 in 10.0 mi WSW 24.2 mph 29.9 mph N/A   Mostly Cloudy
4:53 PM 66.9 °F - 27.0 °F 22% 30.12 in 10.0 mi West 20.7 mph 32.2 mph N/A   Overcast
5:53 PM 66.0 °F - 27.0 °F 23% 30.10 in 10.0 mi West 15.0 mph - N/A   Overcast
6:53 PM 64.9 °F - 27.0 °F 24% 30.07 in 10.0 mi WSW 18.4 mph - N/A   Overcast
7:53 PM 63.0 °F - 30.0 °F 29% 30.08 in 10.0 mi NNW 11.5 mph - N/A   Overcast
8:53 PM 57.9 °F - 30.0 °F 35% 30.10 in 10.0 mi NNW 8.1 mph - N/A   Overcast
9:53 PM 54.0 °F - 28.9 °F 38% 30.11 in 10.0 mi NNW 6.9 mph - N/A   Mostly Cloudy
11:53 PM 42.1 °F 40.2 °F 26.1 °F 53% 30.13 in 10.0 mi WNW 3.5 mph - N/A   Clear